User: anonymous   Login
Location: Unspecified
(0.0000°N, 0.0000°E)
Time: 03:40:48
(UTC+00:00)
Language:

YUBILEINY - Orbit

View from above orbital plane
View from above orbital plane
View from above satellite
View from above satellite

Ground track
Ground track

The orbit is defined by the following mean orbital elements,

1 32953U          26075.87044068 +.00000000 +00000-0 +66782-3 0 00004
2 32953  82.5006  52.8538 0019787 149.7192 210.5035 12.43176650    02
Epoch (UTC): 16 March 2026 20:53:26
Eccentricity: 0.0019787
inclination: 82.5006°
perigee height: 1478 km
apogee height: 1509 km
right ascension of ascending node: 52.8538°
argument of perigee: 149.7192°
revolutions per day: 12.43176650
mean anomaly at epoch: 210.5035°

The dashed part of the orbit path shows where the satellite is in the earth's shadow,  

DLR